Tracking 30101 objects as of 14-Dec-2024
HD Live streaming from Space Station
objects crossing your sky now

USA 65

Track USA 65 now!
USA 65 is classified as:


NORAD ID: 20929
Int'l Code: 1990-095A
Perigee: 36,316.2 km
Apogee: 36,340.1 km
Inclination: 14.3 °
Period: 1,463.5 minutes
Semi major axis: 42699 km
RCS: Unknown
Launch date: November 13, 1990
Source: United States (US)
Launch site: AIR FORCE EASTERN TEST RANGE (AFETR)
Your satellite tracking list
Your tracking list is empty




NASA's NSSDC Master Catalog

Two Line Element Set (TLE):
1 20929U 90095A   24348.60663997 -.00000003  00000-0  00000+0 0  9995
2 20929  14.3477 347.8739 0002795 107.1957 266.4592  0.98395150 20044
Source of the keplerian elements: McCants